Flag for Hungary Weather past 2 weeks in Pécs, Hungary

Now
68 °F

Passing clouds.


Feels Like: 68 °F
Forecast: 55 / 72 °F
Wind: 3 mph from Southwest

Location: Pecs / Pogany

Current Time: Apr 25, 2015 at 3:29:37 PM

Latest Report: Apr 25, 2015 at 2:00 PM


Visibility: 47 mi

Pressure: 29.99 "Hg

Humidity: 44%

Dew point: 45 °F

Location of PécsLocation

Historic Weather in Pécs — Graph

°F

Pécs temperature yesterday

Maximum temperature yesterday: 69 °F (at 4:00 PM)
Minimum temperature yesterday: 53 °F (at 11:00 PM)
Average temperature yesterday: 61 °F

Past Weeks' High & Low Weather Summary

 TemperatureHumidityPressure
High76 °F (Apr 16, 3:00 PM)97% (Apr 18, 3:00 AM)30.41 "Hg (Apr 18, 3:00 AM)
Low33 °F (Apr 19, 6:00 AM)20% (Apr 23, 1:00 PM)29.83 "Hg (Apr 17, 7:00 PM)
Average57 °F49%30.13 "Hg
* Reported Apr 10 2:00 PM — Apr 25 2:00 PM, Pécs, Weather by CustomWeather, © 2015

Note: Actual official high and low records may vary slightly from our data, if they occured in-between our weather recording intervals... More about our weather records

Advertising

Pécs weather history for previous 24 hours

 ConditionsComfort  
Time TempWeatherWind HumidityBarometerVisibility
2:00 PM
Sat, Apr 25
68 °FPassing clouds.3 mph44%29.99 "Hg47 mi
1:00 PM67 °FPassing clouds.3 mph47%30.01 "Hg47 mi
12:00 PM65 °FPassing clouds.3 mph50%30.03 "Hg47 mi
11:00 AM63 °FScattered clouds.3 mph52%30.05 "Hg47 mi
10:00 AM59 °FScattered clouds.3 mph61%30.06 "Hg25 mi
9:00 AM57 °FPassing clouds.2 mph67%30.06 "Hg43 mi
8:00 AM52 °FSunny.2 mph85%30.06 "Hg37 mi
7:00 AM50 °FSunny.2 mph89%30.06 "Hg37 mi
6:00 AM49 °FSunny.No wind90%30.04 "Hg25 mi
5:00 AM49 °FClear.2 mph88%30.04 "Hg25 mi
4:00 AM49 °FClear.2 mph88%30.04 "Hg31 mi
3:00 AM51 °FClear.1 mph80%30.05 "Hg31 mi
2:00 AM52 °FClear.2 mph78%30.05 "Hg31 mi
1:00 AM50 °FClear.2 mph80%30.06 "Hg31 mi
12:00 AM54 °FClear.3 mph74%30.04 "Hg31 mi
11:00 PM
Fri, Apr 24
53 °FClear.3 mph70%30.04 "Hg31 mi
10:00 PM56 °FPassing clouds.1 mph59%30.03 "Hg37 mi
9:00 PM57 °FPassing clouds.2 mph60%30.02 "Hg37 mi
8:00 PM58 °FPassing clouds.3 mph61%30.01 "Hg37 mi
7:00 PM62 °FScattered clouds.3 mph51%30.00 "Hg37 mi
6:00 PM65 °FOvercast.6 mph48%29.99 "Hg37 mi
5:00 PM66 °FOvercast.2 mph40%29.99 "Hg37 mi
4:00 PM69 °FOvercast.3 mph33%29.99 "Hg37 mi
3:00 PM67 °FOvercast.3 mph40%30.01 "Hg37 mi
Weather by CustomWeather, © 2015

See weather overviewHow to use our weather pages